sat.trackr.live / text

‹ back to catalog

STARLINK-36372

NORAD 67889 · 2026-035L

PAYLOAD ACTIVE UNKNOWN

§ Identity

Operator
Country
US
Launch date
2026-02-21
Launch site
AFWTR
Launch vehicle
Mass (kg)
RCS (m²)

Purposes: comms

External: N2YO · Heavens-Above · Gunter

§ Orbital elements

Epoch: 2026-09-19T01:44:14.809632Z

Period
93.91 min
Inclination
97.2850°
Eccentricity
0.0003026
Mean motion
15.33436989 rev/d
Perigee alt
463.5 km
Apogee alt
467.6 km
Semi-major
6,843.7 km
B*
8.4022e-4
RAAN
193.9345°
Arg perigee
99.8422°
Mean anomaly
260.3162°
Rev number
3,362

§ Raw data

STARLINK-363721 67889U 26035L   26262.07239363  .00027144  00000+0  84022-3 0  99912 67889  97.2850 193.9345 0003026  99.8422 260.3162 15.33436989 33625

JSON: /api/v1/satellites/67889 · /tle

For live sub-satellite position, see the globe view (requires WebGL).

§ Visibility from observer

Set your observer location to see the next 7 days of passes ≥ 10°. The values pass through the URL so the page stays shareable.

No JS? Fill the form by hand. The geolocation button needs JavaScript.